Location: Jackson Park
(37.2862°N, 79.9123°W)
Time: 14:35:42
(UTC+00:00)

S-56A Canister/Altair - Pass Details

Date: 17 May 2026
Orbit: 633 x 2484 km, 38.9° (Epoch: 6 June)

Event Time Altitude Azimuth Distance (km) Brightness Sun altitude
Rises 03:16:13 0° 273° (W) 2,949 11.0 -26.7°
Reaches altitude 10° 03:18:30 10° 276° (W) 2,008 10.1 -27.0°
Enters shadow 03:22:12 59° 304° (WNW) 745 7.6 -27.4°
Maximum altitude 03:22:54 72° 1° (N) 688 - -27.4°
Drops below altitude 10° 03:27:56 10° 86° (E) 2,283 - -27.9°
Sets 03:30:41 0° 88° (E) 3,396 - -28.2°
